Weather History for KBRO - December, 2011

Change the Weather History Date:

Tuesday, December 20, 2011

  Actual Average Record
Temperature  
Mean Temperature 67 °F 61 °F  
Max Temperature 73 °F 71 °F 88 °F (1889)
Min Temperature 60 °F 52 °F 27 °F (1924)
Degree Days  
Heating Degree Days 0 6  
Month to date heating degree days 70 97  
Since 1 July heating degree days 109 151  
Cooling Degree Days 2 2  
Month to date cooling degree days 75 57  
Year to date cooling degree days 4616 4002  
Growing Degree Days 17 (Base 50)    
Moisture  
Dew Point 61 °F    
Average Humidity 78    
Maximum Humidity 100    
Minimum Humidity 56    
Precipitation  
Precipitation T in 0.03 in 1.36 in (1940)
Month to date precipitation 1.31 0.78  
Year to date precipitation 17.70 27.07  
Sea Level Pressure  
Sea Level Pressure 29.90 in    
Wind  
Wind Speed 7 mph (NNW)    
Max Wind Speed 18 mph    
Max Gust Speed 25 mph    
Visibility 8 miles    
Events Rain    
T = Trace of Precipitation, MM = Missing Value Source: NWS Daily Summary

Daily Weather History Graph

Daily Weather History Graph

Search for Another Location

Airport or City:

Trip Planner

Search our weather history database for the weather conditions in past years. The results will help you decide how hot, cold, wet, or windy it might be!

Date:

Astronomy

Dec. 20, 2011 Rise Set
Actual Time 7:11 AM CST 5:42 PM CST
Civil Twilight 6:46 AM CST 6:08 PM CST
Nautical Twilight 6:17 AM CST 6:36 PM CST
Astronomical Twilight 5:49 AM CST 7:05 PM CST
Moon 2:47 AM CST (12/20) 2:09 PM CST (12/20)
Length of Visible Light 11h 21m
Length of Day
10h 31m
Waning Crescent, 21% of the Moon is Illuminated
Dec 20
Waning Crescent
Dec 24
New
Jan 1
First Quarter
Jan 9
Full
Jan 16
Last Quarter

Hourly Weather History & Observations

Time (CST) Temp. Dew Point Humidity Pressure Visibility Wind Dir Wind Speed Gust Speed Precip Events Conditions
12:53 AM 70.0 °F 66.0 °F 87% 29.85 in 10.0 mi South 8.1 mph - N/A   Clear
1:53 AM 68.0 °F 66.0 °F 93% 29.85 in 10.0 mi South 4.6 mph - N/A   Clear
2:53 AM 66.9 °F 64.9 °F 93% 29.85 in 9.0 mi Calm Calm - N/A   Unknown
3:53 AM 66.0 °F 64.9 °F 96% 29.83 in 6.0 mi Calm Calm - N/A   Clear
4:23 AM 64.4 °F 64.4 °F 100% 29.84 in 1.5 mi Calm Calm - N/A   Mostly Cloudy
4:39 AM 64.4 °F 62.6 °F 94% 29.84 in 2.5 mi West 3.5 mph - N/A   Overcast
4:44 AM 64.4 °F 64.4 °F 100% 29.84 in 3.0 mi Calm Calm - N/A   Overcast
4:53 AM 64.9 °F 64.9 °F 100% 29.84 in 7.0 mi Calm Calm - N/A   Overcast
5:15 AM 66.2 °F 64.4 °F 94% 29.84 in 7.0 mi Calm Calm - N/A   Overcast
5:53 AM 66.0 °F 64.9 °F 96% 29.85 in 7.0 mi WNW 3.5 mph - N/A   Overcast
6:23 AM 66.2 °F 66.2 °F 100% 29.86 in 8.0 mi Calm Calm - N/A   Overcast
6:31 AM 66.2 °F 66.2 °F 100% 29.86 in 8.0 mi Calm Calm - N/A   Overcast
6:53 AM 66.9 °F 66.0 °F 97% 29.87 in 8.0 mi Calm Calm - N/A   Overcast
6:58 AM 66.2 °F 66.2 °F 100% 29.87 in 7.0 mi Calm Calm - N/A   Overcast
7:09 AM 66.2 °F 66.2 °F 100% 29.88 in 6.0 mi Calm Calm - 0.00 in Rain Light Rain
7:19 AM 66.2 °F 66.2 °F 100% 29.88 in 7.0 mi Calm Calm - 0.00 in   Overcast
7:44 AM 66.2 °F 66.2 °F 100% 29.88 in 5.0 mi SSE 3.5 mph - 0.00 in   Overcast
7:53 AM 66.9 °F 66.0 °F 97% 29.88 in 5.0 mi Calm Calm - 0.00 in   Overcast
8:53 AM 70.0 °F 66.9 °F 90% 29.90 in 9.0 mi West 8.1 mph - N/A   Mostly Cloudy
9:49 AM 69.8 °F 64.4 °F 83% 29.93 in 10.0 mi West 4.6 mph - N/A   Mostly Cloudy
9:53 AM 70.0 °F 64.0 °F 81% 29.93 in 10.0 mi West 5.8 mph - N/A   Mostly Cloudy
10:53 AM 73.0 °F 64.0 °F 73% 29.92 in - North - - N/A   Unknown
11:53 AM 72.0 °F 64.0 °F 76% 29.91 in 10.0 mi WNW 11.5 mph - N/A   Unknown
12:22 PM 71.6 °F 64.4 °F 78% 29.91 in 10.0 mi NW 10.4 mph - N/A   Overcast
12:53 PM 73.0 °F 64.9 °F 76% 29.88 in 10.0 mi NW 8.1 mph 16.1 mph N/A   Overcast
1:53 PM 70.0 °F 60.1 °F 71% 29.88 in 10.0 mi NNW 16.1 mph 23.0 mph N/A   Overcast
2:53 PM 68.0 °F 54.0 °F 61% 29.90 in 10.0 mi North 12.7 mph 25.3 mph N/A   Overcast
3:53 PM 66.9 °F 50.0 °F 54% 29.90 in 10.0 mi North 13.8 mph - N/A   Overcast
4:15 PM 66.2 °F 48.2 °F 52% 29.91 in 10.0 mi North 15.0 mph 21.9 mph N/A   Overcast
4:53 PM 64.9 °F 48.9 °F 56% 29.91 in 10.0 mi North 12.7 mph 21.9 mph N/A   Overcast
5:53 PM 63.0 °F 48.9 °F 60% 29.94 in 10.0 mi NNE 10.4 mph - N/A   Overcast
6:53 PM 62.1 °F 48.9 °F 62% 29.96 in 10.0 mi North 8.1 mph - N/A   Overcast
7:53 PM 62.1 °F 50.0 °F 65% 29.99 in 10.0 mi North 5.8 mph - N/A   Overcast
8:53 PM 62.1 °F 50.0 °F 65% 30.01 in 10.0 mi NNE 5.8 mph - N/A   Overcast
9:53 PM 62.1 °F 51.1 °F 67% 30.02 in 10.0 mi North 4.6 mph - N/A   Overcast
10:53 PM 61.0 °F 51.1 °F 70% 30.02 in 10.0 mi NNW 4.6 mph - N/A   Overcast
11:53 PM 60.1 °F 50.0 °F 69% 30.00 in 10.0 mi North 6.9 mph - N/A   Overcast